SP7WMI-13 Weather Reports


time (UTC)temp
C
wind
direction
speed
KPH
gust
KPH
rain 1hr
cm
rain 24hr
cm
rain mn
cm
humidity
%
barometer
mb
20260502203927 18 315 0.0 3.2 0.00 0.00 0.00 40 1017.8
20260502202424 19 293 1.6 4.8 0.00 0.00 0.00 39 1017.9
20260502200921 19 315 0.0 3.2 0.00 0.00 0.00 39 1017.9
20260502195418 20 315 0.0 1.6 0.00 0.00 0.00 38 1018.0
20260502193915 20 284 0.0 1.6 0.00 0.00 0.00 37 1017.9
20260502192412 20 315 0.0 1.6 0.00 0.00 0.00 36 1018.0
20260502190909 20 315 0.0 0.0 0.00 0.00 0.00 35 1018.1
20260502185406 21 315 0.0 1.6 0.00 0.00 0.00 34 1018.2
20260502183903 21 315 0.0 1.6 0.00 0.00 0.00 33 1018.0
20260502182400 22 315 0.0 0.0 0.00 0.00 0.00 37 1018.0
20260502180857 22 0 0.0 1.6 0.00 0.00 0.00 31 1018.0
20260502162337 26 270 1.6 3.2 0.00 0.00 0.00 26 1018.3
20260502152327 25 97 0.0 6.4 0.00 0.00 0.00 27 1018.9
20260502123750 27 284 1.6 1.6 0.00 0.00 0.00 28 1020.7
20260502122247 26 287 1.6 4.8 0.00 0.00 0.00 28 1020.9
20260502120744 25 301 0.0 6.4 0.00 0.00 0.00 30 1021.1
20260502115241 24 272 4.8 4.8 0.00 0.00 0.00 29 1021.2
20260502110732 21 73 4.8 6.4 0.00 0.00 0.00 33 1021.8
20260502105229 21 28 0.0 8.0 0.00 0.00 0.00 35 1022.0
20260502100719 19 274 1.6 3.2 0.00 0.00 0.00 38 1022.5